Vertical_Velocity
3 3 -3 -4 -2 0 -2 2 -1 -1 -4 -3 2 4 9 12 1 -1 -3 -3 -19 -3 9 3 5 3 -0 1 3 1 1 -0 -4 0 -1 -0 1 1 0 -0 -2 -0 -1 -0 1
0 5 1 -2 -2 0 -1 0 -2 2 -3 -5 2 6 3 10 0 -2 -4 -2 -9 10 -4 0 -1 2 3 4 -1 -2 2 -7 -7 -1 -0 -0 -0 1 -1 -1 -0 2 2 2 7
-1 3 -5 -2 -1 -2 0 -2 -3 -1 -1 -6 -10 10 0 5 -1 -4 1 -3 -6 7 10 -0 2 2 4 1 1 -1 -6 -1 -2 -0 -1 -1 -0 -0 -1 1 1 1 -2 -2 3
2 -0 -2 0 -6 -2 -1 1 -3 -2 -1 -2 -1 -1 -3 -5 -1 3 1 -0 -1 5 9 5 4 6 2 0 1 3 -0 -4 2 6 -4 -1 -1 0 -0 -1 0 3 3 -2 0
-0 -2 2 -1 -4 2 -1 1 -1 -1 -1 2 -1 3 1 -0 -3 2 -0 1 1 9 1 1 -1 -1 -2 -1 1 1 -0 1 3 -3 2 -0 -1 -0 -0 0 2 4 3 -0 1
-2 -3 4 -2 -1 1 -3 -1 -1 1 -2 -1 -1 -2 -1 -2 -2 1 1 1 1 -2 5 -0 -2 -4 0 -2 -1 -4 -0 -3 2 -1 -1 -1 0 -1 0 4 0 1 -1 1 1
2 0 2 -2 -0 -1 -1 -3 1 0 0 1 0 -2 -3 -4 -1 1 1 2 1 -5 5 -4 2 4 -1 1 -2 2 2 2 3 0 0 -0 -1 -2 1 -2 -4 -3 -2 -2 1
0 -1 1 0 -0 3 -1 0 -1 -1 -2 -2 -1 -2 -5 -2 -0 1 -1 3 2 -14 6 3 -12 2 4 2 5 -2 -2 2 1 2 2 -4 -22 -5 -1 -1 -5 -4 -3 -2 -0
0 0 1 -2 -3 -1 -2 1 -0 -1 -2 2 -1 -1 -5 2 1 0 -2 4 -1 -5 0 16 6 -3 3 -2 1 3 -1 1 5 -1 -1 -3 -5 -5 -4 -2 -1 -1 -3 -1 -4
1 2 -0 -5 -3 -1 -0 -1 -1 -1 1 -1 -0 -1 -2 -3 -1 -2 -1 5 -1 -3 15 1 1 2 1 1 -10 -1 0 1 -2 1 3 2 -2 0 -1 -1 -3 -4 -3 -3 -5
-2 4 1 -6 0 -1 -0 -2 -1 -2 1 -1 3 -2 -0 7 2 0 4 0 5 13 -1 -2 -4 -1 -3 -0 -2 -2 -2 -1 1 1 -2 -2 -0 -2 -3 1 1 -3 -3 -5 -7
-4 2 0 -6 -2 -1 -2 -2 -1 -4 -1 -1 -2 0 4 -6 -5 1 -1 -3 -4 0 1 -0 -1 -3 -1 -0 -3 -0 -1 1 1 2 -3 1 -2 -2 1 -4 -4 -3 -4 -6 -3
1 2 1 -4 -2 1 0 -2 -2 1 -1 -7 3 1 2 -2 3 1 2 7 -2 1 0 -6 -1 1 -2 1 -3 0 -3 0 -5 1 -0 -1 -1 2 -2 2 3 -3 -2 -4 -8
3 1 1 -3 1 -1 -2 3 -3 -0 -6 2 3 -9 3 -1 1 -4 2 -6 4 -2 -1 -1 0 -1 1 -1 -4 -1 -1 -1 -0 -3 -2 -2 -5 1 -1 -0 1 -2 -1 -2 -2
1 -0 -1 -1 5 -1 -2 0 2 -2 -9 -7 1 -2 4 0 -2 -0 -5 1 -1 1 -5 -6 2 2 0 -4 -2 -1 -1 -2 -1 -1 -2 0 1 -8 1 2 -3 -2 -6 -3 8
-1 2 -1 1 4 -2 -2 -0 -2 -20 -12 -2 1 0 2 1 1 2 -0 6 4 -3 -1 1 1 -2 -2 1 -1 -1 -3 -3 -1 -1 1 -2 0 -4 -1 -7 -1 -1 -3 -13 -13
-2 0 4 1 -2 -1 -1 -1 -12 -9 -6 -1 -1 1 -0 1 3 1 1 -1 -1 -2 -1 0 0 0 0 -4 -0 -2 -4 -1 0 -0 -4 -0 2 -9 -3 -2 -2 -3 -3 1 -4
-1 -0 4 -3 -1 -2 -1 -8 -8 -3 -1 -1 0 1 -1 0 2 -1 1 0 -1 -0 -1 -2 10 -0 -1 -2 -7 0 -4 -6 -4 -2 -3 -1 -2 -14 -3 -0 1 -0 -2 0 0
-0 0 2 0 2 3 -3 -5 -9 -3 -4 0 -2 -2 1 1 -3 0 -0 -1 -1 -1 -6 -2 2 1 -1 0 -4 -1 -3 -2 -4 -0 -2 -3 -5 -6 -1 -2 -2 -1 0 -2 -0
-0 2 0 -2 1 3 -6 -2 -1 -1 -0 -0 -1 -1 -1 1 -2 -1 -1 -2 1 0 -0 -1 -3 1 2 -0 -1 -3 -4 -5 -4 -3 -0 -2 -1 -5 -2 -2 -2 -3 -2 -1 -1
-0 1 1 -1 3 -1 -4 -3 -1 -1 1 -2 -1 -0 -0 -2 -1 -0 -1 1 0 1 -1 -2 -7 3 -1 -0 -3 0 0 -2 -5 -2 -2 -1 -6 -4 -2 -0 -0 -2 0 -2 2
0 -4 -0 -0 -0 0 -0 -2 1 -0 -1 -1 0 -0 -1 -0 -0 0 -2 1 1 -2 -1 1 -3 -0 0 2 0 -1 -1 -2 -5 -3 -0 -2 -13 -1 -1 0 1 -0 -0 -0 1
-1 -0 1 0 -3 -1 -2 -0 0 -0 -0 0 -0 0 -0 -1 -2 -0 0 0 -1 -0 -3 -4 -0 -0 3 -1 -2 1 -0 -1 -1 -1 -2 -1 -8 -0 0 -1 -0 0 0 -4 1
-1 -5 2 3 1 -2 -0 -0 -0 -0 -0 1 0 -2 -1 -0 -1 -0 1 0 0 -0 1 -3 -0 -6 -9 -7 -4 2 1 0 -2 3 -4 -9 -5 -6 -4 -1 -2 -1 -2 -1 -6
-2 -2 -1 -3 -1 -0 -0 0 -0 -1 -0 -1 -1 -1 0 -1 -0 -0 0 1 0 1 -0 -3 -2 -2 -0 -0 -0 -1 -1 -0 2 -9 3 -2 -0 -6 -5 -1 -3 -0 -0 0 -1
-4 -4 0 -0 0 -1 -1 1 -0 -2 -0 -1 -3 -0 0 -1 -1 -2 -2 -1 -3 1 -1 -0 -1 -1 1 0 -0 0 -0 0 -0 -1 2 3 -12 -1 -4 -3 -3 -4 1 -3 -1
-1 -1 -2 1 0 -2 0 0 2 1 0 0 1 -0 -1 2 2 1 0 0 -2 -4 -0 -2 -2 -2 -2 -0 -1 -2 -4 -1 -1 -0 -5 1 -24 -1 -4 -1 -3 -4 2 -4 1
Height
1513 1511 1507 1504 1500 1497 1493 1490 1487 1485 1482 1479 1478 1478 1480 1482 1485 1487 1487 1490 1494 1496 1499 1500 1505 1508 1510 1512 1515 1521 1529 1532 1535 1530 1532 1534 1534 1534 1535 1537 1537 1537 1536 1536 1537
1512 1508 1505 1502 1499 1495 1492 1489 1487 1485 1481 1477 1476 1475 1476 1478 1482 1483 1487 1488 1491 1495 1496 1499 1502 1507 1510 1511 1515 1517 1522 1523 1527 1528 1530 1533 1534 1533 1536 1538 1540 1538 1537 1536 1539
1510 1508 1504 1500 1498 1495 1493 1490 1487 1485 1482 1479 1477 1475 1474 1476 1481 1481 1483 1483 1487 1492 1496 1497 1501 1506 1510 1508 1513 1515 1515 1520 1526 1525 1528 1532 1535 1534 1534 1539 1541 1540 1538 1537 1539
1508 1506 1501 1498 1497 1495 1493 1491 1488 1486 1483 1481 1479 1478 1476 1478 1482 1480 1479 1479 1484 1490 1493 1495 1500 1506 1507 1507 1510 1513 1514 1520 1522 1525 1528 1533 1534 1535 1534 1536 1538 1539 1539 1538 1539
1506 1503 1499 1497 1495 1494 1493 1491 1488 1485 1483 1482 1481 1480 1480 1481 1480 1480 1479 1478 1481 1487 1490 1494 1498 1503 1503 1506 1510 1511 1512 1518 1521 1524 1527 1532 1534 1533 1534 1535 1536 1538 1538 1538 1539
1503 1500 1498 1496 1494 1494 1492 1491 1488 1485 1484 1483 1482 1482 1482 1482 1480 1479 1480 1480 1481 1484 1489 1491 1495 1501 1503 1506 1508 1509 1512 1516 1520 1525 1528 1531 1533 1533 1533 1534 1534 1536 1538 1538 1539
1502 1498 1496 1494 1493 1492 1491 1489 1488 1486 1484 1483 1482 1481 1481 1481 1479 1479 1480 1482 1483 1485 1488 1492 1496 1501 1502 1505 1507 1508 1514 1517 1520 1521 1526 1531 1531 1526 1529 1531 1532 1535 1537 1538 1539
1500 1496 1494 1492 1491 1489 1489 1488 1487 1486 1484 1483 1482 1481 1480 1480 1479 1478 1479 1481 1483 1486 1488 1492 1495 1498 1500 1502 1505 1509 1515 1520 1519 1522 1528 1534 1523 1525 1525 1528 1531 1533 1536 1537 1538
1497 1494 1491 1490 1488 1487 1487 1487 1486 1486 1484 1483 1482 1481 1480 1480 1479 1478 1478 1479 1482 1484 1487 1490 1494 1498 1499 1501 1508 1507 1513 1516 1521 1520 1524 1531 1528 1524 1523 1525 1528 1530 1533 1535 1536
1495 1491 1489 1488 1486 1485 1484 1484 1485 1485 1484 1483 1482 1483 1480 1480 1478 1478 1478 1479 1479 1484 1488 1492 1493 1493 1497 1498 1499 1503 1511 1515 1515 1520 1524 1529 1529 1525 1524 1524 1525 1528 1529 1532 1534
1491 1488 1486 1484 1484 1483 1483 1483 1487 1486 1484 1484 1484 1481 1479 1479 1478 1478 1477 1479 1481 1484 1485 1492 1499 1490 1494 1497 1498 1503 1509 1514 1515 1517 1521 1522 1525 1527 1524 1525 1526 1524 1526 1529 1531
1489 1485 1483 1482 1481 1481 1481 1482 1482 1485 1483 1481 1479 1479 1478 1478 1478 1478 1478 1481 1481 1480 1486 1495 1496 1496 1494 1496 1498 1501 1510 1514 1513 1515 1518 1521 1523 1523 1519 1520 1520 1518 1521 1525 1527
1487 1483 1481 1480 1479 1479 1480 1481 1482 1482 1484 1482 1480 1480 1478 1478 1478 1477 1478 1479 1482 1480 1482 1487 1493 1492 1493 1498 1501 1507 1509 1514 1515 1518 1520 1523 1525 1522 1518 1518 1517 1515 1514 1518 1521
1485 1481 1479 1479 1480 1478 1480 1481 1481 1480 1489 1483 1480 1480 1480 1478 1480 1477 1479 1482 1482 1484 1485 1488 1491 1492 1496 1499 1502 1507 1507 1509 1515 1519 1525 1522 1525 1514 1510 1513 1512 1508 1508 1509 1516
1483 1480 1478 1476 1478 1480 1482 1481 1481 1481 1484 1482 1480 1480 1478 1480 1480 1481 1479 1479 1481 1482 1488 1491 1493 1494 1497 1498 1498 1505 1506 1509 1515 1520 1521 1522 1524 1506 1506 1505 1499 1504 1506 1507 1509
1481 1479 1478 1478 1479 1480 1480 1481 1483 1492 1498 1482 1480 1479 1479 1478 1479 1480 1480 1480 1480 1483 1488 1488 1492 1495 1496 1498 1497 1504 1508 1515 1521 1522 1524 1519 1520 1510 1507 1499 1500 1502 1503 1504 1504
1479 1479 1478 1478 1479 1479 1480 1482 1492 1489 1482 1480 1476 1476 1476 1477 1478 1477 1478 1479 1480 1489 1487 1493 1496 1497 1497 1498 1503 1504 1513 1525 1524 1527 1524 1523 1523 1501 1497 1497 1497 1497 1495 1498 1500
1478 1479 1479 1479 1479 1479 1481 1484 1489 1483 1478 1474 1472 1474 1474 1476 1478 1478 1479 1483 1483 1484 1489 1490 1503 1500 1500 1500 1503 1505 1510 1520 1526 1527 1523 1525 1519 1502 1492 1493 1493 1493 1492 1494 1494
1477 1479 1479 1479 1479 1479 1483 1496 1481 1483 1479 1475 1472 1473 1473 1475 1476 1478 1479 1480 1480 1479 1485 1494 1497 1502 1502 1502 1503 1507 1515 1517 1532 1542 1531 1519 1515 1500 1492 1490 1488 1486 1486 1486 1487
1477 1479 1478 1479 1479 1480 1483 1479 1476 1475 1472 1474 1474 1472 1474 1471 1478 1477 1478 1477 1480 1481 1482 1490 1498 1501 1503 1503 1505 1504 1510 1517 1528 1531 1522 1519 1518 1500 1492 1490 1488 1484 1482 1483 1484
1475 1478 1478 1478 1479 1480 1488 1484 1475 1471 1473 1473 1473 1474 1475 1476 1477 1478 1479 1479 1477 1481 1482 1488 1493 1505 1503 1504 1505 1508 1511 1518 1518 1526 1518 1519 1503 1494 1492 1490 1489 1486 1482 1483 1484
1474 1478 1477 1477 1480 1481 1482 1476 1473 1473 1473 1471 1472 1471 1476 1479 1479 1478 1477 1478 1476 1477 1482 1486 1497 1501 1502 1504 1505 1506 1508 1510 1517 1526 1539 1530 1507 1488 1489 1489 1488 1485 1482 1483 1485
1471 1474 1476 1475 1480 1482 1474 1473 1471 1471 1472 1473 1471 1469 1470 1475 1477 1478 1478 1478 1479 1480 1483 1485 1501 1505 1510 1509 1508 1506 1506 1506 1513 1517 1534 1515 1502 1488 1488 1487 1486 1484 1484 1484 1487
1470 1475 1474 1474 1474 1475 1475 1474 1471 1470 1470 1471 1471 1470 1468 1472 1476 1477 1479 1479 1478 1480 1481 1484 1496 1498 1500 1495 1500 1506 1502 1503 1505 1506 1503 1495 1491 1487 1483 1484 1483 1484 1484 1483 1485
1469 1472 1473 1477 1474 1475 1476 1475 1473 1473 1471 1470 1471 1473 1473 1474 1475 1478 1478 1479 1480 1480 1482 1484 1496 1505 1496 1495 1499 1500 1498 1498 1501 1497 1500 1489 1485 1482 1479 1480 1480 1480 1481 1482 1482
1467 1469 1472 1474 1475 1475 1476 1478 1476 1477 1475 1472 1472 1473 1472 1473 1473 1477 1477 1477 1477 1480 1482 1487 1502 1502 1494 1497 1499 1503 1497 1496 1494 1492 1493 1491 1487 1476 1475 1477 1477 1477 1477 1477 1477
1464 1467 1469 1475 1475 1475 1479 1479 1477 1478 1476 1474 1474 1472 1472 1476 1476 1475 1474 1475 1475 1478 1483 1486 1496 1502 1505 1501 1497 1494 1485 1488 1489 1487 1485 1490 1472 1471 1472 1473 1472 1471 1471 1471 1471